Regional Weather Roundup
Issued by NWS

Home | Current Version | Previous Version | Graphics & Text | Print | Product List | Glossary Off
Versions: 1 2 3 4 5 6 7 8 9 10 11 12 13 14 15 16 17 18 19 20 21 22 23 24 25 26 27 28 29 30 31 32 33 34 35 36 37 38 39 40 41 42 43 44 45 46 47 48 49 50

000
ASUS43 KMKX 281600
RWRWI

WISCONSIN REGIONAL WEATHER ROUNDUP
NATIONAL WEATHER SERVICE MILWAUKEE/SULLIVAN WI
1000 AM CST SUN DEC 28 2014

NOTE: "FAIR" INDICATES FEW OR NO CLOUDS BELOW 12,000 FEET WITH NO
SIGNIFICANT WEATHER AND/OR OBSTRUCTIONS TO VISIBILITY.

WIZ001-002-006>008-014>016-023>028-281700-
NORTHWEST WISCONSIN

CITY           SKY/WX    TMP DP  RH WIND       PRES   REMARKS
SUPERIOR ARPT  SUNNY     14   3  61 NW12      30.19R WCI   0
ASHLAND        CLOUDY    18  11  74 NW12      30.14R WCI   5
HAYWARD        LGT SNOW  17  12  80 VRB3      30.12R
SIREN          LGT SNOW  17  13  86 NW5       30.15R WCI  10
CUMBERLAND     LGT SNOW  16  12  86 NW3       30.11R
RICE LAKE      LGT SNOW  15  11  85 CALM      30.14R
CHETEK         LGT SNOW  14  11  85 CALM      30.13R
LADYSMITH      LGT SNOW  13  10  90 CALM      30.12R
EAU CLAIRE     CLOUDY    11   8  88 SW3       30.15R
MENOMONIE      CLOUDY    11   8  89 CALM      30.15R
NEW RICHMOND   LGT SNOW  12  10  88 CALM      30.14R
OSCEOLA        LGT SNOW  14  11  87 CALM      30.17R
$$

WIZ003>005-009-010-017-018-281700-
NORTH CENTRAL WISCONSIN

CITY           SKY/WX    TMP DP  RH WIND       PRES   REMARKS
MANITOWISH WTR LGT SNOW  12  10  91 W3        30.04R
ARBOR VITAE    MOSUNNY   14  11  89 W5        30.05R WCI   6
WOODRUFF       MOSUNNY   14  11  89 W5        30.05R WCI   6
RHINELANDER    PTSUNNY    9   7  92 W7        30.06R WCI  -2
EAGLE RIVER    SUNNY     14  10  82 W6        30.03R WCI   5
LAND O LAKES   PTSUNNY   17  13  84 W7        30.03R WCI   7
PHILLIPS       LGT SNOW  12   9  89 CALM      30.07R
TOMAHAWK       LGT SNOW  13  11  90 CALM      30.08R
MEDFORD        LGT SNOW  11   8  89 CALM      30.08R
MERRILL        LGT SNOW  12  10  92 CALM      30.09R
$$

WIZ029-030-035-036-043>047-281700-
CENTRAL WISCONSIN

CITY           SKY/WX    TMP DP  RH WIND       PRES   REMARKS
WAUSAU         FOG       15  12  88 NW3       30.10R VSB 3/4
MOSINEE        NOT AVBL
MARSHFIELD     CLOUDY    12   8  84 W5        30.11R WCI   4
STEVENS POINT  CLOUDY    14  12  93 W5        30.13R FOG     WCI   6
WAUPACA        MOSUNNY   22  16  77 W6        30.14R WCI  15
WAUTOMA        NOT AVBL
WISC RAPIDS    SUNNY     17  12  80 NW3       30.15R
CAMP DOUGLAS   NOT AVBL
$$

WIZ011>013-019>022-031-037>040-048>050-281700-
NORTHEAST WISCONSIN

CITY           SKY/WX    TMP DP  RH WIND       PRES   REMARKS
ANTIGO         LGT SNOW  11  10  93 W5        30.07R WCI   3
SHAWANO        SUNNY     19  13  79 W8        30.12S WCI   8
OCONTO         SUNNY     20  15  81 W8        30.12R WCI  10
STURGEON BAY   SUNNY     19  12  73 W10       30.12R WCI   8
GREEN BAY      PTSUNNY   22  17  81 W9        30.13S WCI  12
MANITOWOC      NOT AVBL
APPLETON       PTSUNNY   19  16  86 W9        30.13R WCI   9
CLINTONVILLE   MOSUNNY   19  14  79 NW7       30.12S WCI  10
OSHKOSH        MOSUNNY   21  15  78 W7        30.15R WCI  12
$$

WIZ032>034-041-042-053>061-281700-
SOUTHWEST WISCONSIN

CITY           SKY/WX    TMP DP  RH WIND       PRES   REMARKS
LA CROSSE      SUNNY     19  12  74 S3        30.18R
SPARTA         MOSUNNY   18  13  81 CALM      30.16R
VIROQUA        SUNNY     19  17  90 W5        30.13R WCI  12
BOSCOBEL       SUNNY     21  16  81 S5        30.19R WCI  15
PRAIRIE DU CHI SUNNY     20  13  76 CALM      30.19R
PLATTEVILLE    SUNNY     21  18  88 CALM      30.18R
$$

WIZ056-057-062-063-064-067-068-281700-
SOUTH CENTRAL WISCONSIN

CITY           SKY/WX    TMP DP  RH WIND       PRES   REMARKS
REEDSBURG      SUNNY     20  15  80 W5        30.15R WCI  14
BARABOO/DELLS  SUNNY     21  15  78 W7        30.14R WCI  13
LONE ROCK      NOT AVBL
MINERAL POINT  SUNNY     23  19  86 SW3       30.15R
MADISON        MOSUNNY   22  15  75 SW7       30.16R WCI  13
MIDDLETON      SUNNY     24  15  69 SW3       30.16R
WATERTOWN      SUNNY     23  16  75 W3        30.15S
MONROE         SUNNY     23  19  86 CALM      30.15S
JANESVILLE     SUNNY     25  18  74 W6        30.17R WCI  18
$$

WIZ051-052-058>065-066-070>072-281700-
SOUTHEAST WISCONSIN

CITY           SKY/WX    TMP DP  RH WIND       PRES   REMARKS
MILWAUKEE      MOSUNNY   27  15  61 W6        30.16R WCI  20
WAUKESHA       SUNNY     23  16  74 W5        30.15S WCI  17
MILWAUKEE/TIMM SUNNY     27  16  63 W10       30.16R WCI  17
RACINE         SUNNY     25  15  66 W6        30.18R WCI  18
BURLINGTON     SUNNY     24  15  68 W5        30.17R WCI  18
KENOSHA        SUNNY     26  16  65 W9        30.17R WCI  17
FOND DU LAC    SUNNY     23  14  68 W8        30.15S WCI  14
SHEBOYGAN      SUNNY     24  17  74 W12       30.13S WCI  13
WEST BEND      SUNNY     25  16  68 W12       30.13S WCI  14
JUNEAU         SUNNY     21  15  78 SW7       30.16R WCI  12
$$

LSZ147-162-281700-
LAKE SUPERIOR

STATION/POSITION TIME  TEMP    WIND        PRES    WAVE
                       AIR SEA DIR/SP/G            HT/PER
                 (UTC) (F)     (DEG/KT/KT) (MB)    (FT/S)
DEVILS ISLAND    1500   13     310/ 18/ 21 1022.0R
PORT WING        1500   17     310/ 15/ 19 1021.0R
SAXON HARBOR     1500   19     240/  4/  8 1019.6R
$$

LMZ867-665-643>646-281700-
LAKE MICHIGAN

STATION/POSITION TIME  TEMP    WIND        PRES    WAVE
                       AIR SEA DIR/SP/G            HT/PER
                 (UTC) (F)     (DEG/KT/KT) (MB)    (FT/S)
CHAMBERS ISLAND  1500   21     220/  6/ 11 1019.0R
NORTHPORT PIER   1504   22     260/  6/ 14 1018.6R
SISTER BAY       1543          290/ 13/ 15   N/A
ALGOMA LAKESHORE 1545          310/ 10/ 19   N/A
KEWAUNEE LAKESHO 1500   22     280/  9/ 15 1018.4R
SHEBOYGAN LAKESH 1500   23 37  290/  9/ 12 1021.3R
PORT WASHINGTON  1540   27     270/  7/ 10 1021.7R
MILWAUKEE LAKESH 1500   24     290/  7/  9   N/A
KENOSHA   LAKESH 1500   24     260/  7/  9 1021.3R
$$

TC  - TEMPERATURE IN CELSIUS
VSB - VISIBILITY IN STATUTE MILES
WCI - WIND CHILL INDEX
HX  - HEAT INDEX



USA.gov is the U.S. government's official web portal to all federal, state and local government web resources and services.